Location: Unspecified
(41.1637°N, 24.2901°E)
Time: 19:19:35
(UTC+01:00)

ISS - Pass Details

Date: 14 January 2025
Orbit: 415 x 418 km, 51.6° (Epoch: 13 January)

Event Time Altitude Azimuth Distance (km) Brightness Sun altitude
Rises 18:48:50 0° 262° (W) 2,349 1.3 -27.9°
Reaches altitude 10° 18:51:07 10° 274° (W) 1,488 0.0 -28.4°
Enters shadow 18:52:13 17° 287° (WNW) 1,126 -0.9 -28.6°
